Location: Apollinopolis Magna
(24.9792°N, 32.8772°E)
Time: 04:58:42
(UTC+00:00)

Cosmos 2219 Rocket - Pass Details

Date: 02 March 2021
Orbit: 826 x 848 km, 71.0° (Epoch: 12 April)

Event Time Altitude Azimuth Distance (km) Brightness Sun altitude
Rises 16:10:43 0° 154° (SSE) 3,349 5.1 -5.2°
Reaches altitude 10° 16:14:20 10° 130° (SE) 2,420 4.2 -6.0°
Maximum altitude 16:17:08 14° 100° (E) 2,142 3.7 -6.7°
Drops below altitude 10° 16:19:56 10° 69° (ENE) 2,427 4.0 -7.3°
Enters shadow 16:22:23 - 51° (NE) 3,020 4.6 -7.9°
